Lebanon, NH

7:50 PM EST on November 21, 2019 (GMT -0500)
Lebanon Municipal

Weather History for KLEB - October, 2019

Change the Weather History Date:

Tuesday, October 22, 2019

  Actual Average Record
Temperature  
Mean Temperature 50 °F -  
Max Temperature 60 °F 58 °F 84 °F (1979)
Min Temperature 42 °F 36 °F 18 °F (1940)
Degree Days  
Heating Degree Days 14    
Moisture  
Dew Point 41 °F    
Average Humidity 77    
Maximum Humidity 92    
Minimum Humidity 51    
Precipitation  
Precipitation 0.03 in - - ()
Sea Level Pressure  
Sea Level Pressure 30.07 in    
Wind  
Wind Speed 3 mph (SSE)    
Max Wind Speed 16 mph    
Max Gust Speed 31 mph    
Visibility 6 miles    
Events Fog , Rain    
Averages and records for this station are not official NWS values.
T = Trace of Precipitation, MM = Missing Value Source: NWS Daily Summary

Daily Weather History Graph

Daily Weather History Graph

Search for Another Location

Airport or City:

Astronomy

Oct. 22, 2019 Rise Set
Actual Time 7:11 AM EDT 5:54 PM EDT
Civil Twilight 6:42 AM EDT 6:24 PM EDT
Nautical Twilight 6:09 AM EDT 6:57 PM EDT
Astronomical Twilight 5:35 AM EDT 7:30 PM EDT
Moon 12:02 AM EDT 3:16 PM EDT
Length of Visible Light 11h 41m
Length of Day
10h 43m
Last Quarter, 37% of the Moon is Illuminated
Oct 22
Last Quarter
Oct 27
New
Nov 4
First Quarter
Nov 12
Full
Nov 19
Last Quarter

Hourly Weather History & Observations

Time (EDT) Temp. Windchill Dew Point Humidity Pressure Visibility Wind Dir Wind Speed Gust Speed Precip Events Conditions
12:53 AM 42.1 °F - 39.0 °F 89% 30.18 in 0.2 mi Calm Calm - N/A Fog Fog
1:53 AM 42.1 °F - 39.0 °F 89% 30.17 in 0.2 mi Calm Calm - N/A Fog Fog
2:53 AM 42.1 °F - 39.0 °F 89% 30.17 in 0.2 mi Calm Calm - N/A Fog Fog
3:17 AM 42.1 °F - 39.0 °F 89% 30.16 in 0.8 mi Calm Calm - N/A   Mist
3:27 AM 42.1 °F - 39.0 °F 89% 30.15 in 1.2 mi Calm Calm - N/A   Overcast
3:41 AM 42.1 °F - 39.0 °F 89% 30.14 in 0.5 mi Calm Calm - N/A Fog Fog
3:53 AM 42.1 °F - 39.0 °F 89% 30.15 in 0.2 mi Calm Calm - N/A Fog Fog
4:39 AM 42.1 °F - 39.0 °F 89% 30.14 in 0.5 mi Calm Calm - N/A Fog Fog
4:46 AM 42.1 °F - 39.9 °F 92% 30.14 in 0.2 mi Calm Calm - N/A Fog Fog
4:53 AM 42.1 °F - 39.9 °F 92% 30.14 in 0.2 mi Calm Calm - N/A Fog Fog
5:35 AM 42.1 °F 40.2 °F 39.0 °F 89% 30.12 in 0.5 mi South 3.5 mph - N/A Fog Fog
5:53 AM 42.1 °F 40.2 °F 39.0 °F 89% 30.14 in 1.2 mi South 3.5 mph - N/A   Overcast
6:08 AM 42.1 °F 40.2 °F 39.0 °F 89% 30.14 in 3.0 mi South 3.5 mph - N/A   Overcast
6:22 AM 42.1 °F 39.2 °F 39.0 °F 89% 30.15 in 2.5 mi ESE 4.6 mph - N/A   Overcast
6:30 AM 42.1 °F 38.4 °F 39.0 °F 89% 30.13 in 4.0 mi SE 5.8 mph - N/A   Mostly Cloudy
6:41 AM 43.0 °F 40.3 °F 39.0 °F 86% 30.13 in 4.0 mi Variable 4.6 mph - N/A   Scattered Clouds
6:53 AM 42.1 °F - 39.0 °F 89% 30.14 in 1.2 mi Calm Calm - N/A   Overcast
7:00 AM 43.0 °F - 39.9 °F 89% 30.13 in 6.0 mi Calm Calm - N/A   Mostly Cloudy
7:07 AM 42.1 °F - 39.0 °F 89% 30.13 in 1.0 mi Calm Calm - N/A   Overcast
7:17 AM 42.1 °F - 39.0 °F 89% 30.12 in 0.5 mi Calm Calm - N/A Fog Fog
7:53 AM 43.0 °F 40.3 °F 39.9 °F 89% 30.17 in 1.5 mi SW 4.6 mph - N/A   Mostly Cloudy
8:09 AM 43.0 °F - 39.9 °F 89% 30.15 in 5.0 mi Calm Calm - N/A   Partly Cloudy
8:53 AM 45.0 °F - 41.0 °F 86% 30.15 in 8.0 mi Calm Calm - N/A   Clear
9:00 AM 44.1 °F 42.5 °F 41.0 °F 89% 30.14 in 4.0 mi West 3.5 mph - N/A   Scattered Clouds
9:53 AM 48.9 °F - 44.1 °F 83% 30.12 in 10.0 mi Calm Calm - N/A   Clear
10:53 AM 57.9 °F - 42.1 °F 56% 30.09 in 10.0 mi SSE 3.5 mph - N/A   Clear
11:53 AM 59.0 °F - 42.1 °F 53% 30.10 in 10.0 mi SSE 9.2 mph - N/A   Clear
12:53 PM 57.9 °F - 39.9 °F 51% 30.09 in 10.0 mi SSE 8.1 mph - N/A   Clear
1:53 PM 57.9 °F - 42.1 °F 56% 30.07 in 10.0 mi South 13.8 mph - N/A   Clear
2:53 PM 59.0 °F - 41.0 °F 51% 30.03 in 10.0 mi Variable 4.6 mph - N/A   Mostly Cloudy
3:53 PM 59.0 °F - 41.0 °F 51% 29.99 in 10.0 mi Variable 6.9 mph - N/A   Overcast
4:53 PM 59.0 °F - 42.1 °F 53% 29.99 in 10.0 mi SE 10.4 mph 19.6 mph N/A   Overcast
5:53 PM 57.9 °F - 41.0 °F 53% 29.99 in 10.0 mi SE 16.1 mph 31.1 mph N/A   Overcast
6:30 PM 57.0 °F - 41.0 °F 55% 29.98 in 10.0 mi SSE 12.7 mph 21.9 mph N/A   Overcast
6:37 PM 57.0 °F - 41.0 °F 55% 29.98 in 10.0 mi SSE 12.7 mph 21.9 mph N/A   Overcast
6:44 PM 57.0 °F - 42.1 °F 57% 29.99 in 10.0 mi SSE 12.7 mph 21.9 mph N/A   Overcast
6:53 PM 55.9 °F - 42.1 °F 60% 29.99 in 10.0 mi SSE 12.7 mph 21.9 mph N/A   Overcast
7:53 PM 54.0 °F - 44.1 °F 69% 29.98 in 10.0 mi Calm Calm - N/A   Overcast
8:11 PM 54.0 °F - 45.0 °F 72% 29.97 in 10.0 mi Variable 3.5 mph - N/A   Overcast
8:53 PM 54.0 °F - 45.0 °F 72% 29.98 in 10.0 mi South 6.9 mph - N/A   Overcast
9:53 PM 53.1 °F - 46.0 °F 77% 29.93 in 10.0 mi Variable 3.5 mph - 0.00 in   Overcast
10:26 PM 54.0 °F - 46.0 °F 75% 29.92 in 10.0 mi Calm Calm - N/A   Overcast
10:53 PM 54.0 °F - 46.9 °F 77% 29.90 in 10.0 mi SSE 4.6 mph - 0.00 in   Overcast
11:07 PM 54.0 °F - 46.9 °F 77% 29.90 in 9.0 mi Variable 3.5 mph - 0.00 in Rain Light Rain
11:53 PM 53.1 °F - 48.0 °F 83% 29.89 in 10.0 mi WNW 4.6 mph - 0.03 in Rain Light Rain